Sign in Sign up

Gangneung

Pos Pair Lane Name Born Nation Time
1 10 I Sven Kramer 1986 Netherlands 6:09.76
2 9 I Ted-Jan Bloemen 1986 Canada 6:11.616
3 9 O Sverre Lunde Pedersen 1992 Norway 6:11.618
4 8 O Peter Michael 1989 New Zealand 6:14.07
5 5 I Seung-Hoon Lee 1988 South Korea 6:14.15
6 5 O Bart Swings 1991 Belgium 6:14.57
7 8 I Jan Blokhuijsen 1989 Netherlands 6:14.75
8 11 I Nicola Tumolero 1994 Italy 6:15.48
9 3 O Seitaro Ichinohe 1996 Japan 6:16.55
10 10 O Patrick Beckert 1990 Germany 6:17.91
11 7 O Alexis Contin 1986 France 6:18.13
12 11 O Moritz Geisreiter 1987 Germany 6:18.34
13 4 I Simen Spieler Nilsen 1993 Norway 6:18.39
14 1 O Nils Van Der Poel 1996 Sweden 6:19.06
15 4 O Bob de Vries 1984 Netherlands 6:22.26
16 2 O Ryosuke Tsuchiya 1994 Japan 6:22.45
17 3 I Livio Wenger 1993 Switzerland 6:24.16
18 6 O Håvard Bøkko 1987 Norway 6:24.50
19 7 I Davide Ghiotto 1993 Italy 6:29.25
20 6 I Andrea Giovannini 1993 Italy 6:30.71
21 2 I Emery Lehman 1996 USA 6:31.16
22 1 I Adrian Wielgat 1993 Poland 6:31.71

Info

What Olympic Winter Games 2018
Discipline 5.000
Host Gangneung
Nation South Korea
Date Sunday 11.Feb 2018
Calendar 2017/2018
Air Temp 17.0 C
Ice Temp -9.4 C
Humidity 23.0 %